Regional Weather Roundup
Issued by NWS

Home | Current Version | Previous Version | Text Only | Print | Product List | Glossary On
Versions: 1 2 3 4 5 6 7 8 9 10 11 12 13 14 15 16 17 18 19 20 21 22 23 24 25 26 27 28 29 30 31 32 33 34 35 36 37 38 39 40 41 42 43 44 45 46 47 48 49 50
000
ASCA44 KEWX 270920
RWRMX

LATIN AMERICA AND CARIBBEAN REGIONAL WEATHER ROUNDUP
NATIONAL WEATHER SERVICE AUSTIN/SAN ANTONIO TX
300 AM CST TUE JAN 27 2015

NOTE: "FAIR" INDICATED FEW OR NO CLOUDS BELOW 12,000 FEET WITH NO
SIGNIFICANT WEATHER AND/OR OBSTRUCTIONS TO VISIBILITY.

BAJA CALIFORNIA

CITY           SKY/WX    TMP DP  RH WIND       PRES   REMARKS
TIJUANA        MOCLDY    55  48  76 CALM      30.12R

NORTHWESTERN MEXICO

CITY           SKY/WX    TMP DP  RH WIND       PRES   REMARKS

NORTHEASTERN MEXICO

CITY           SKY/WX    TMP DP  RH WIND       PRES   REMARKS
MONTERREY      MOCLDY    54  45  71 CALM      30.21F
REYNOSA        CLEAR     52  39  62 SW5       30.21S
SALTILLO       MOCLDY    48  37  66 CALM      30.31F
CD. VICTORIA   PTCLDY    55  46  71 SE8       30.22F

WESTERN MEXICO

CITY           SKY/WX    TMP DP  RH WIND       PRES   REMARKS
DEL BAJIO      PTCLDY    55  27  33 NE5       30.36
GUADALAJARA    MOCLDY    54  46  76 CALM      30.23F
MAZATLAN       PTCLDY    63  55  77 W10       29.96S
P. VALLARTA    CLEAR     70  66  88 N3        29.96R
ZACATECAS      CLEAR     46  37  71 CALM      30.36S

CENTRAL MEXICO

CITY           SKY/WX    TMP DP  RH WIND       PRES   REMARKS
MEXICO CITY    PTCLDY    50  34  53 E6        30.39F WCI  48
MORELIA        MOCLDY    50  39  66 CALM      30.29F
QUERETARO      MOCLDY    41  28  60 NE5       30.29F WCI  38
S. LUIS POTOSI PTCLDY    43  21  42 CALM      30.35F
TOLUCA         PTCLDY    41  34  75 CALM      30.44F

SOUTHERN MEXICO

CITY           SKY/WX    TMP DP  RH WIND       PRES   REMARKS
ACAPULCO       PTCLDY    77  75  94 N2        29.95S

YUCATAN PENINSULA

CITY           SKY/WX    TMP DP  RH WIND       PRES   REMARKS
CANCUN         CLEAR     55  55 100 CALM      30.10F
COZUMEL        CLEAR     64  57  77 NW14      30.11F
MERIDA         CLEAR     55  52  88 CALM      30.14F
TAPACHULA      CLEAR     73  68  83 CALM      29.93F

CENTRAL AMERICA

CITY           SKY/WX    TMP DP  RH WIND       PRES   REMARKS
MANAGUA        MOSUNNY   75  68  78 E7        29.89S

CARIBBEAN

CITY           SKY/WX    TMP DP  RH WIND       PRES   REMARKS
ARUBA          PTCLDY    79  73  83 E15       29.83S
CURACAO        PTCLDY    77  72  83 SE6       29.89R
KINGSTON       PTCLDY    79  72  78 N5        29.92S
NASSAU         PTCLDY    66  55  68 NW20      29.94F
SAN JUAN       PTCLDY    75  72  88 CALM      29.95S
SANTO DOMINGO  PTCLDY    70  68  94 N3        29.94S
ST. MAARTEN    PTCLDY    79  68  69 SE12      29.97S

$$




USA.gov is the U.S. government's official web portal to all federal, state and local government web resources and services.